Theta_e
324 320 317 314 315 314 308 303 295 293 296 291 288 290 291 296 295 296 298 300 299 303 305 306 305 308 307 305 307 310 313 303 297 293 291 307 324 329 330 332 335 336 337 338 340 341 341 343 344 343 342 342 342 342 342 341 341 341 341 341 341 341 341 341 341 341 342 342 344 345 345 346 347 346 347 346 346 347 347 346 346 345 345 346 345 346 346 346 345 345 345 346 345 344 344 343 342
322 321 316 316 314 307 303 299 291 288 288 287 290 291 294 294 295 295 297 298 300 303 302 304 312 313 313 313 315 313 309 315 315 310 320 325 326 328 332 334 335 335 336 338 339 339 339 340 345 344 342 342 342 342 342 342 341 341 342 341 341 342 342 342 343 344 343 344 344 345 345 346 346 346 346 346 346 346 346 346 346 346 345 345 346 346 346 345 345 344 345 345 345 344 343 343 343
325 320 315 312 307 307 303 296 294 286 287 285 287 290 296 295 295 295 299 302 303 304 302 310 312 313 310 312 310 308 301 320 322 322 320 323 323 324 332 335 336 336 336 337 339 339 338 339 344 344 343 342 341 343 344 344 342 341 342 342 344 344 344 344 345 346 345 345 346 347 347 347 347 347 346 347 346 346 346 346 345 345 345 345 346 345 345 345 344 343 343 344 344 343 343 342 342
323 319 317 308 305 302 295 293 289 289 290 285 288 292 296 297 297 299 301 303 303 301 303 304 301 305 311 309 312 317 314 316 322 321 319 320 320 327 331 334 336 336 336 338 339 339 338 340 343 344 343 342 344 344 344 344 345 344 343 343 345 345 345 346 346 346 345 345 347 347 347 346 346 346 346 346 346 346 346 345 345 345 345 345 345 345 345 345 344 342 342 342 343 342 342 342 342
317 320 316 306 302 300 297 294 290 287 287 286 287 292 298 299 300 300 302 302 302 301 303 303 302 307 312 313 313 308 310 317 323 324 321 323 326 329 332 334 335 334 335 338 339 339 338 342 343 344 342 341 343 344 344 344 345 345 345 346 346 346 345 346 345 345 345 344 346 347 347 347 346 347 346 346 345 346 346 345 345 345 345 345 345 346 345 344 343 342 341 341 342 342 341 341 341
314 311 316 309 304 303 295 291 288 288 291 291 292 296 299 301 302 301 303 303 305 303 303 302 303 303 313 315 316 311 320 314 322 323 323 321 326 332 333 333 333 333 334 337 338 338 338 341 342 344 343 342 344 345 345 345 345 345 345 346 346 346 345 345 345 345 345 344 344 345 345 346 346 346 346 345 345 345 345 345 345 345 345 345 345 345 345 345 344 342 340 340 341 341 340 340 340
316 308 307 304 303 298 291 287 288 289 293 293 295 299 301 301 302 302 303 305 306 305 305 306 312 310 310 314 315 321 322 322 323 323 326 324 328 332 332 332 333 332 333 337 337 338 338 341 343 344 344 343 345 345 345 344 344 344 345 346 346 345 345 344 345 344 344 344 345 345 346 345 345 345 345 345 344 345 345 345 345 344 344 344 344 345 344 343 343 342 341 340 340 340 339 339 339
314 309 306 298 296 295 291 289 291 289 296 295 297 302 301 302 301 303 302 301 303 303 305 306 305 305 306 315 309 318 325 326 324 328 327 325 329 330 331 331 331 330 334 336 337 337 343 340 342 343 344 344 345 345 344 344 344 344 344 345 345 345 345 344 344 344 344 343 344 344 344 345 345 345 345 344 344 344 344 344 345 344 344 344 343 343 343 343 342 341 340 339 338 338 338 338 338
314 311 306 298 295 294 290 292 293 293 293 295 301 303 308 304 303 303 301 302 303 303 305 305 304 305 306 312 310 316 322 326 329 329 325 324 327 329 330 330 329 329 334 336 336 337 338 339 341 342 342 343 345 344 343 344 344 344 345 345 345 345 345 344 344 344 343 343 343 344 344 344 344 344 344 344 344 343 343 344 344 343 343 343 342 342 342 342 341 340 339 338 337 336 336 336 336
313 307 300 298 297 294 291 290 294 296 294 296 298 303 303 302 302 303 301 301 303 302 305 305 303 303 308 310 311 317 319 327 328 324 322 324 326 326 326 327 330 332 334 335 336 337 337 342 339 340 341 342 342 343 344 344 344 344 344 345 345 345 345 344 344 343 342 343 344 344 344 344 344 344 343 343 343 342 342 343 342 342 342 342 341 342 341 340 340 339 338 337 335 334 334 335 335
306 308 305 298 292 291 291 292 292 295 296 295 296 301 304 302 303 301 302 301 302 302 304 305 309 310 313 312 311 317 324 326 326 322 322 323 323 322 322 329 333 334 334 334 335 337 337 337 342 338 339 340 341 342 344 344 343 344 344 344 345 345 344 343 343 342 342 342 343 344 344 343 343 343 343 342 342 342 341 341 342 341 341 340 340 340 340 340 339 338 337 336 334 333 333 333 334
306 303 301 293 294 292 291 294 295 295 292 292 298 298 298 302 301 301 300 302 302 302 304 306 306 314 311 311 310 320 324 324 326 326 325 325 321 320 330 333 335 335 335 334 335 336 336 336 336 340 337 338 338 340 341 342 343 344 344 344 344 344 343 343 343 342 342 342 343 343 343 343 343 342 342 343 342 341 341 340 340 340 340 340 340 340 340 339 338 337 335 335 333 333 333 333 333
304 303 297 296 293 294 294 295 295 296 293 293 296 298 298 302 302 301 301 302 301 302 305 306 308 308 307 310 313 320 321 324 326 327 326 325 322 322 332 334 334 335 335 335 335 335 335 335 336 337 335 335 335 336 337 340 342 343 344 343 343 344 343 343 343 343 343 343 342 343 343 343 343 342 342 342 340 341 340 341 341 339 339 339 339 339 339 338 337 336 335 334 333 332 332 332 333
305 305 302 298 295 295 295 295 294 298 293 293 295 297 298 299 299 301 303 303 302 304 305 308 308 315 312 312 314 316 320 324 326 326 325 324 322 323 330 332 332 333 334 335 335 335 335 335 336 334 333 333 332 333 334 337 339 342 342 342 342 342 342 342 342 342 343 343 342 341 341 341 341 341 341 340 340 340 340 339 339 340 339 338 338 338 338 338 337 336 334 333 333 332 331 332 332
308 306 299 297 296 295 296 297 296 292 293 295 298 298 301 304 300 301 306 302 304 306 310 310 309 307 303 312 308 317 322 324 326 325 325 323 321 324 328 330 331 332 333 334 335 335 335 335 337 334 331 331 331 330 330 335 336 338 339 339 340 340 340 339 339 339 339 338 338 337 338 338 337 337 337 337 337 337 336 334 335 338 338 338 338 338 337 336 336 335 334 334 333 332 331 331 331
310 302 298 298 296 296 296 297 298 294 294 295 298 296 300 302 301 303 304 304 305 308 307 307 313 306 307 313 313 322 324 325 326 325 324 321 321 323 326 327 329 330 331 332 335 335 335 335 337 335 332 331 330 329 329 332 334 334 336 337 337 337 336 336 335 335 333 332 332 332 332 333 333 332 332 332 333 334 334 330 332 337 338 338 337 337 337 336 336 336 334 333 332 331 331 331 331
310 304 298 293 296 297 298 299 297 296 296 296 297 301 299 299 302 303 304 307 307 307 310 312 310 317 316 316 314 324 325 326 324 324 322 320 319 320 321 322 325 326 329 330 333 334 334 334 336 335 332 331 330 329 329 331 334 333 333 333 332 332 333 333 332 329 327 326 327 326 328 328 328 329 329 328 328 328 325 326 330 335 337 338 337 336 336 335 335 336 335 334 332 332 332 330 328
309 303 295 294 298 298 301 301 298 300 296 296 299 299 299 298 301 304 306 305 303 306 309 310 319 319 319 320 323 325 325 324 324 323 321 318 317 318 319 320 322 323 325 327 330 332 333 334 336 335 333 331 329 330 330 330 334 334 335 334 332 331 330 330 329 330 331 327 325 326 327 327 326 326 326 330 325 326 326 325 327 331 335 336 336 336 335 335 334 336 335 334 333 332 328 314 316
304 298 299 301 299 303 306 304 300 298 298 296 297 297 299 299 301 303 303 301 304 305 306 311 314 317 320 322 323 324 324 323 322 322 320 318 317 317 318 319 320 321 322 324 327 330 332 333 334 334 333 332 329 329 329 329 333 334 334 334 331 330 330 330 329 329 328 327 326 327 326 326 326 325 325 326 327 323 326 325 327 330 332 332 333 334 335 335 335 335 335 335 333 328 317 315 313
302 302 297 301 304 304 308 304 304 298 298 297 297 298 299 302 301 303 301 299 301 303 304 306 311 313 315 318 321 322 323 322 322 321 320 319 318 318 317 317 319 320 322 323 325 327 330 331 333 334 333 333 330 329 328 328 332 334 334 333 331 331 330 329 329 328 327 327 326 326 326 325 325 325 327 327 326 325 324 323 325 327 328 328 328 329 331 331 334 334 334 332 329 321 314 315 315
304 304 302 304 306 306 309 305 299 300 298 297 297 298 300 301 301 301 298 301 299 301 305 309 309 315 317 319 320 321 321 321 321 321 320 319 319 319 319 319 320 320 321 320 322 325 327 330 332 333 333 333 331 329 327 327 329 333 334 333 332 332 330 328 328 328 327 327 326 326 325 324 325 326 325 325 326 326 326 327 326 326 325 325 324 321 320 320 322 317 318 318 313 314 315 313 314
304 305 306 305 306 306 311 310 306 299 299 297 296 298 299 302 302 299 301 298 297 302 304 308 312 319 318 318 319 320 320 320 320 319 320 320 319 318 319 318 318 318 318 319 321 323 324 328 331 332 332 332 332 330 328 327 328 330 332 333 332 332 331 330 328 328 327 327 326 325 324 324 324 325 325 325 325 326 326 326 326 326 324 322 322 320 316 317 315 314 313 314 313 312 313 314 315
303 303 303 304 305 306 307 304 302 299 299 297 296 298 300 301 300 298 300 299 299 300 304 308 311 321 321 322 321 319 319 319 320 319 320 319 319 319 319 320 319 319 319 319 321 322 323 326 330 331 331 331 332 332 330 327 327 329 332 332 332 331 332 330 329 328 327 327 326 324 324 323 324 325 325 325 324 325 325 326 326 325 323 322 322 319 316 315 315 314 314 315 313 312 312 313 312
306 303 303 306 306 307 307 304 300 298 299 297 298 299 300 298 298 299 298 300 300 301 301 304 313 322 322 320 320 320 320 320 320 321 321 321 321 321 321 320 320 320 320 319 320 321 321 323 328 329 329 330 332 332 330 327 327 327 329 329 331 330 330 331 330 328 327 327 326 325 325 324 325 325 325 324 324 324 325 325 325 324 324 322 322 320 316 315 314 315 314 313 313 312 312 312 313
304 303 304 305 306 307 308 308 299 297 298 298 299 298 298 297 297 298 298 301 300 301 306 309 314 321 321 320 320 320 320 320 320 321 322 322 322 321 321 321 320 319 319 319 320 320 321 321 324 327 327 327 332 333 330 329 327 327 326 328 330 328 330 330 330 327 327 327 326 325 324 324 324 325 324 325 324 323 324 324 324 324 323 322 321 320 317 317 315 315 316 316 313 316 312 313 314
305 305 304 307 307 306 307 304 297 296 298 297 298 296 296 295 298 297 299 299 300 300 309 311 317 319 319 320 320 320 320 320 321 320 321 322 322 321 320 321 321 319 320 321 319 320 321 322 322 324 327 327 331 332 331 329 328 327 326 327 328 326 328 329 327 327 327 327 327 325 324 324 324 324 324 323 322 322 323 323 323 323 322 321 320 320 318 317 317 314 315 316 317 314 313 316 313
306 305 305 306 308 308 302 301 296 296 298 296 298 297 297 298 298 298 299 301 299 300 308 311 316 317 318 319 320 320 320 320 320 322 321 321 321 320 321 321 320 321 320 320 320 320 321 321 322 322 326 325 329 331 331 330 328 327 326 326 326 325 326 326 326 326 326 326 327 326 324 323 324 324 324 322 321 321 321 321 321 321 320 319 320 320 318 318 318 317 317 317 316 315 315 314 313
305 307 304 305 306 306 301 297 296 297 298 296 298 297 297 297 298 302 301 299 300 300 305 312 314 316 317 318 319 320 320 321 321 321 320 319 320 321 321 321 321 321 320 319 320 321 321 321 323 323 324 324 326 330 330 330 329 328 326 326 325 325 325 325 325 325 324 325 326 326 324 323 322 323 323 322 321 320 320 319 319 318 319 319 319 320 317 317 319 318 317 317 317 317 317 315 314
305 304 302 303 303 305 303 298 296 297 299 296 298 299 296 296 298 306 302 300 298 299 299 308 312 314 316 317 318 319 319 320 320 320 321 321 322 322 321 323 322 321 322 321 320 320 320 321 323 323 323 324 324 327 329 329 329 328 326 324 325 324 324 324 323 323 323 324 325 326 324 323 321 322 322 322 319 320 319 319 318 318 318 319 319 320 318 316 316 315 316 316 315 315 315 315 311
306 305 301 301 301 300 304 300 298 297 300 297 303 295 297 299 301 306 301 301 299 298 298 299 306 310 314 316 317 318 319 318 319 320 321 322 322 323 322 323 323 323 322 321 320 320 321 322 323 324 323 323 323 324 327 326 326 326 324 323 323 323 323 323 323 322 322 322 324 325 324 323 321 321 321 320 320 319 319 319 319 318 318 317 318 318 317 315 316 315 316 315 315 314 314 315 311
302 302 302 297 295 295 302 305 299 297 299 300 304 296 299 303 304 305 301 299 299 299 300 299 299 302 307 313 316 317 318 319 319 321 322 323 323 324 323 324 323 323 322 320 320 320 321 322 323 323 322 322 322 323 323 325 324 324 323 322 322 322 323 323 323 322 321 322 323 324 324 323 322 321 321 321 319 319 318 318 318 319 318 317 317 317 318 316 316 316 314 315 315 313 313 314 313
300 299 295 295 297 295 302 303 299 301 303 300 302 295 299 304 307 306 304 302 300 300 302 301 300 299 300 305 312 316 317 319 320 321 322 323 323 323 323 323 324 324 323 322 321 320 320 321 322 323 322 322 322 323 323 323 323 323 322 320 321 321 322 322 322 322 322 321 322 323 324 323 322 322 321 321 320 319 319 319 319 318 318 317 317 316 316 316 315 315 314 315 314 314 313 314 311
299 301 292 295 294 296 299 303 300 305 303 300 302 295 295 300 303 305 306 303 301 301 302 303 302 301 300 300 304 309 313 314 317 319 321 322 323 324 324 324 324 325 324 323 321 320 320 321 321 322 322 322 322 322 323 323 323 322 322 321 321 321 321 321 322 322 322 322 322 322 323 323 322 322 322 322 321 320 320 320 320 319 318 318 317 317 316 317 316 316 314 313 316 316 314 314 312
297 299 297 296 296 295 297 301 303 302 304 299 300 299 302 304 300 301 303 303 300 301 302 303 303 303 304 302 301 302 305 309 311 316 319 321 322 323 324 323 325 325 325 324 323 321 320 321 321 322 323 323 323 322 322 323 323 322 322 321 320 321 321 321 322 322 322 322 322 322 322 323 322 322 322 322 322 321 321 320 319 319 319 318 318 317 317 316 316 316 315 313 314 315 314 314 314
296 296 297 297 298 300 299 299 301 303 302 302 300 297 299 303 305 306 307 303 303 302 303 304 303 304 304 304 303 302 303 304 307 311 316 320 322 323 324 324 324 325 326 325 324 323 321 321 321 320 321 322 322 322 322 322 322 322 321 321 320 321 321 321 322 321 323 323 322 322 322 322 321 322 322 322 322 321 320 320 320 319 319 319 318 317 317 316 315 314 315 314 312 314 315 314 315
300 299 299 299 297 297 298 302 302 305 302 300 301 300 300 301 302 305 306 306 303 305 305 304 305 305 305 304 304 303 303 304 306 307 311 317 321 322 323 324 324 325 325 325 324 323 322 321 320 321 321 322 322 322 321 321 320 320 319 319 319 319 320 320 321 322 322 323 323 322 322 323 322 322 323 322 322 321 320 320 320 320 319 319 318 317 317 317 316 314 314 314 313 312 312 313 312
303 301 300 299 299 299 301 302 303 304 302 301 302 302 302 304 305 305 306 306 304 304 303 303 303 304 304 304 304 304 304 305 307 307 308 312 318 322 323 323 323 324 325 325 324 323 322 321 320 320 321 322 322 321 320 320 319 319 319 319 319 320 320 320 320 321 322 322 322 323 322 323 323 322 322 322 322 320 321 321 320 320 320 319 319 319 318 318 318 317 316 314 314 313 313 312 311
302 300 298 298 298 297 301 302 302 303 302 298 301 301 302 303 306 307 307 304 303 305 306 306 306 305 305 304 304 305 306 306 305 304 305 308 314 319 321 322 321 321 323 324 324 324 324 323 321 321 321 321 322 322 321 320 321 321 320 320 320 321 320 319 320 321 321 322 322 322 322 323 323 323 321 323 322 322 321 321 320 320 320 320 320 319 318 316 317 317 316 314 313 314 313 313 313
301 300 299 298 298 299 301 302 302 301 301 299 298 299 302 304 305 307 307 305 305 306 307 307 307 306 305 305 305 305 305 305 304 305 305 307 311 315 320 321 322 323 323 324 325 324 324 323 322 321 321 321 322 322 322 321 322 321 321 321 321 320 322 322 322 321 321 321 322 322 322 323 323 323 323 322 323 322 322 322 321 321 321 320 318 318 318 317 317 317 316 316 313 311 313 313 314
300 299 297 296 299 298 295 301 301 300 300 295 298 299 301 304 305 305 307 306 306 306 306 306 307 306 305 305 305 305 304 305 304 304 305 306 309 313 316 320 321 322 322 323 324 324 324 323 323 322 322 321 322 322 321 323 322 322 322 321 321 321 320 320 321 319 321 321 321 322 322 322 323 323 323 323 323 323 323 322 322 321 321 321 320 319 318 318 318 317 317 316 315 312 312 313 314
300 300 299 298 298 300 300 299 300 300 298 297 294 295 296 298 297 299 301 303 304 306 303 303 304 305 307 306 305 305 306 306 306 305 304 304 307 311 314 318 321 321 322 323 324 324 325 324 324 323 323 322 322 321 321 322 321 320 320 316 316 318 315 318 318 319 320 320 321 321 322 322 322 323 324 323 322 323 323 323 322 322 321 321 320 320 319 319 319 318 318 316 315 315 312 313 313
298 300 300 301 301 300 300 299 298 294 293 294 295 288 292 299 300 300 302 300 299 302 302 302 303 304 304 303 304 305 305 306 307 307 306 305 306 310 313 315 318 320 321 323 324 325 325 325 325 324 324 323 322 322 322 322 321 321 319 318 316 317 317 317 317 318 319 319 320 322 322 322 322 322 323 324 323 321 323 323 322 322 321 320 320 321 321 320 319 318 318 318 317 317 316 313 312
295 297 303 302 302 301 300 297 297 292 291 294 298 292 289 294 297 300 301 301 301 303 301 302 303 304 304 304 305 305 306 306 306 306 305 304 305 308 312 314 317 319 321 323 324 324 325 325 325 325 324 324 323 322 322 321 321 321 320 319 319 318 318 319 320 321 320 321 321 321 322 322 323 322 322 323 323 322 322 322 322 321 321 321 320 321 321 320 320 319 319 319 318 317 316 314 313
294 302 302 302 301 300 300 299 297 294 295 296 295 295 291 292 298 296 297 298 300 301 302 301 302 304 304 305 305 305 306 306 306 306 305 305 306 307 310 313 315 318 320 322 323 324 324 324 325 325 325 323 324 323 322 322 321 321 320 320 319 319 319 319 320 320 321 320 320 321 321 322 322 323 323 323 323 323 321 322 322 321 321 321 319 320 321 321 321 321 319 320 319 318 317 316 315
298 303 304 301 302 302 301 299 295 294 292 291 295 292 287 289 294 300 297 296 295 297 299 301 302 303 304 305 306 306 307 307 306 305 304 305 305 306 309 312 315 317 319 321 322 323 324 324 324 325 325 324 324 323 322 322 321 321 321 320 319 319 320 320 319 319 320 319 320 320 321 321 322 323 323 323 323 323 320 321 321 321 320 320 318 319 320 321 320 320 319 318 318 318 318 318 317
299 303 305 304 303 301 299 294 292 289 289 288 294 293 289 291 292 295 298 299 299 299 299 300 302 303 304 305 306 307 307 307 305 305 305 305 306 306 307 309 312 316 318 320 322 323 323 324 324 323 324 325 324 324 322 322 321 320 321 320 319 319 319 319 318 318 319 319 319 320 320 321 321 322 322 323 323 323 322 320 321 321 320 320 317 318 319 319 320 320 320 319 319 318 319 318 317
301 301 298 296 297 296 289 288 290 288 287 291 296 294 294 288 294 295 294 297 300 300 301 301 300 302 304 305 306 307 308 308 308 306 305 305 305 305 305 305 307 312 316 318 320 321 323 323 323 323 324 325 325 324 323 322 321 321 321 321 320 319 319 319 318 317 318 319 319 319 320 320 321 321 322 322 323 323 323 322 321 321 321 319 317 318 318 319 320 320 320 319 318 319 319 318 316
302 295 292 294 289 288 291 288 288 287 286 293 297 295 295 287 291 296 300 297 301 301 301 303 303 303 303 304 305 307 307 308 308 307 306 305 303 302 302 303 304 307 314 317 318 320 321 322 323 322 323 324 325 324 324 323 322 321 321 321 320 320 320 319 318 318 318 318 319 319 320 320 320 321 321 322 322 323 323 323 322 321 321 321 320 319 319 319 320 320 320 319 319 319 319 318 318
300 296 296 291 285 288 284 287 284 285 286 288 294 295 288 291 297 293 296 297 296 301 304 304 304 305 305 305 306 306 306 304 305 305 306 305 305 305 302 303 303 303 310 315 318 319 320 321 321 322 322 323 324 324 324 323 322 322 321 321 321 321 320 320 319 318 319 318 319 319 319 319 320 320 320 321 321 322 323 323 323 322 322 321 321 321 320 319 319 320 319 319 319 319 319 319 319
297 295 293 288 284 283 282 285 287 288 290 290 290 294 291 295 298 303 300 297 299 300 300 301 302 304 304 304 304 303 303 303 304 304 304 304 304 304 304 304 304 304 306 312 316 317 319 320 320 321 322 323 323 324 324 323 323 323 322 322 322 321 320 320 320 319 319 319 320 319 320 320 320 320 321 321 322 322 322 323 323 323 323 323 322 322 322 321 320 320 320 320 320 320 320 320 320
297 299 296 290 289 285 280 283 281 284 287 287 290 290 285 288 289 291 297 303 302 301 301 302 301 301 301 302 301 300 300 300 299 300 302 303 304 304 305 305 304 304 304 307 312 316 318 318 319 319 320 321 322 323 324 323 323 323 323 323 322 322 321 321 321 321 320 319 319 319 320 321 321 321 322 322 322 322 322 322 323 323 324 324 324 324 323 323 322 321 321 322 322 322 322 321 321
298 299 298 292 288 291 286 285 285 286 285 283 286 288 290 294 294 291 295 294 293 294 297 297 300 301 302 302 303 303 302 301 298 298 300 301 303 303 303 303 303 304 303 304 307 312 315 317 318 319 320 321 321 321 323 323 324 324 323 322 322 322 320 321 321 320 320 321 320 320 320 320 321 322 322 322 323 323 323 323 323 322 323 324 325 325 325 324 324 323 322 322 322 323 322 321 321
294 296 290 293 298 294 284 281 279 283 284 283 288 288 292 297 299 300 298 295 295 295 294 295 298 301 302 303 304 304 304 300 298 297 298 299 299 299 301 302 303 303 303 303 305 308 312 315 316 317 318 320 320 321 322 323 323 323 323 323 323 322 321 320 321 321 321 321 321 320 320 320 321 321 322 322 322 323 323 324 324 324 323 323 324 325 325 325 325 324 323 323 322 323 322 322 321
298 290 294 295 294 292 288 282 280 280 280 282 289 285 287 285 285 293 298 297 298 296 296 296 298 300 301 304 305 306 302 298 299 299 298 298 298 299 300 301 302 303 303 303 304 305 310 313 315 316 317 317 319 320 320 322 322 322 323 323 323 323 322 321 321 321 321 320 320 320 320 320 320 321 321 321 322 322 322 318 323 324 324 324 323 323 324 325 325 325 325 324 324 323 322 321 321
297 294 303 294 286 286 286 284 281 278 279 276 285 287 288 289 289 285 286 294 297 298 297 296 295 296 299 303 305 305 299 296 297 298 299 299 299 299 300 300 301 301 301 302 303 304 307 310 313 315 316 317 318 319 320 321 322 323 323 322 323 323 322 322 322 321 321 320 320 320 320 320 320 320 320 320 320 321 321 321 322 322 324 324 323 323 323 323 324 324 324 323 323 323 322 321 321
296 297 298 299 292 290 288 288 285 287 279 279 280 284 282 291 292 294 290 290 295 297 297 297 297 297 298 301 303 304 304 300 299 299 299 300 301 301 301 300 299 299 300 300 301 300 302 307 310 311 314 315 316 317 318 318 320 321 322 322 322 323 322 322 322 321 320 320 320 320 320 319 320 320 320 320 320 319 319 320 320 321 322 323 323 323 323 322 322 323 323 322 322 322 321 320 320
291 291 293 294 291 289 294 291 289 285 281 282 277 280 283 290 294 293 294 293 293 295 297 298 299 299 299 300 302 302 302 300 299 299 300 300 300 299 297 296 297 296 296 297 298 300 301 303 306 309 311 313 313 315 317 318 319 320 320 321 321 322 322 322 322 321 320 320 320 319 320 321 319 319 320 318 318 319 318 319 319 318 320 321 322 322 322 322 322 321 322 322 321 321 320 320 318
294 293 292 294 291 288 285 283 291 289 284 278 279 279 287 287 292 296 296 296 295 296 297 298 300 301 302 302 301 299 298 297 297 298 299 300 297 296 295 294 294 294 296 296 297 296 297 299 303 307 309 311 313 314 315 317 318 319 319 320 321 322 322 322 321 321 320 320 320 320 319 318 317 319 318 318 318 318 316 317 318 319 319 320 321 322 321 321 320 320 320 321 321 319 318 318 317
Wind_Speed
7 5 5 4 1 2 2 4 1 3 3 1 2 1 1 1 1 3 1 1 3 2 0 2 3 2 1 3 9 6 0 2 2 4 3 1 1 5 7 10 10 9 9 6 5 5 6 9 10 12 13 12 13 13 12 11 11 12 11 12 12 12 10 10 11 12 13 14 14 13 13 13 13 13 14 15 15 15 16 16 16 17 18 18 18 19 19 19 19 19 18 18 18 17 17 16 16
4 5 4 2 0 2 1 2 3 3 6 4 0 1 1 2 3 3 4 3 2 2 1 4 8 11 13 11 8 4 3 1 1 1 0 1 5 5 8 12 12 11 8 6 4 4 6 6 9 12 13 14 14 13 12 11 11 12 11 12 12 13 12 11 11 13 13 12 13 14 14 14 13 14 14 14 14 15 15 16 16 16 17 17 18 19 19 19 18 18 17 17 17 16 16 16 16
4 6 4 4 3 4 1 4 1 1 3 3 2 1 1 3 4 3 4 5 5 4 5 8 10 7 4 2 3 1 1 2 0 1 2 3 9 3 7 10 10 10 10 5 5 5 5 6 8 12 13 13 13 12 12 11 10 10 11 12 13 12 12 12 12 13 13 12 12 12 12 13 13 13 13 14 14 15 15 15 15 16 16 17 18 18 18 18 17 17 16 16 16 15 16 16 16
1 1 1 3 2 4 1 3 3 2 3 3 0 2 3 7 5 4 3 5 5 4 2 1 3 1 5 6 3 3 3 0 0 3 3 5 5 7 7 10 9 7 7 5 5 5 5 7 9 11 12 12 13 11 12 11 10 9 9 12 13 12 12 12 12 12 13 13 13 14 13 13 13 14 14 14 13 14 14 14 14 15 16 17 18 18 17 17 16 16 16 16 15 15 15 15 15
3 1 1 2 3 3 1 0 2 3 2 3 3 2 2 3 6 4 2 1 1 2 2 2 4 3 1 5 1 1 4 1 2 2 2 1 7 9 8 10 9 8 7 6 6 5 5 10 10 10 11 12 12 11 11 11 10 11 11 10 12 14 13 13 13 13 12 12 13 13 12 13 14 14 14 14 15 14 14 15 14 15 15 17 17 17 17 16 16 15 15 15 15 14 14 14 14
2 4 2 1 1 2 4 1 3 3 5 4 2 3 4 5 8 5 2 0 1 1 4 4 4 4 2 2 1 3 4 4 4 1 3 6 11 12 10 10 9 8 6 5 5 5 6 9 10 10 12 12 12 11 10 11 11 11 12 12 12 13 13 13 12 12 12 12 12 13 13 13 14 15 14 15 14 15 15 14 15 15 15 16 16 16 16 16 15 14 14 14 14 13 13 13 13
3 3 3 4 2 4 3 2 1 2 5 5 4 4 7 5 5 8 3 2 2 3 1 3 5 5 4 1 2 0 3 2 4 3 5 8 10 12 11 10 9 8 7 6 5 6 6 9 10 10 10 12 13 11 11 11 11 11 12 13 13 14 13 13 12 12 13 13 13 13 13 14 14 14 14 14 15 14 14 15 14 14 14 14 15 15 15 15 14 14 13 13 13 13 12 12 12
1 2 1 3 1 3 1 1 2 4 1 4 3 9 6 6 5 5 4 3 2 3 1 4 2 5 1 2 2 2 4 1 2 7 9 10 11 11 11 11 10 8 8 7 6 6 8 10 10 10 9 10 13 12 12 11 10 10 12 13 14 13 13 14 14 13 12 13 12 12 13 13 13 14 14 14 15 15 15 15 14 14 14 14 14 14 14 15 14 13 13 12 12 12 11 11 12
2 1 1 4 2 2 3 1 3 2 4 2 1 2 6 7 6 6 4 1 1 0 2 3 3 5 2 3 0 3 3 1 6 10 12 11 12 12 9 11 11 9 9 7 6 6 6 9 10 10 10 8 12 13 12 12 11 10 11 13 13 13 13 14 14 13 13 13 13 13 13 13 13 14 13 14 13 14 15 15 14 15 14 14 13 14 14 13 13 12 12 12 11 11 11 11 11
1 2 2 1 2 2 2 1 4 1 2 1 4 5 5 4 4 5 6 4 4 3 2 1 2 3 3 3 0 1 1 1 9 9 9 11 12 10 10 10 11 11 10 8 7 7 5 12 10 11 10 8 8 10 12 11 11 11 12 12 13 13 13 13 13 13 14 13 13 13 14 14 14 14 13 13 13 13 14 13 13 13 13 13 13 13 13 13 12 12 12 11 10 10 10 10 10
1 4 2 2 3 1 0 3 3 4 0 2 2 3 5 4 5 3 2 5 1 4 1 2 5 5 3 1 2 3 1 4 11 11 8 10 9 9 8 10 11 11 10 9 8 7 6 6 10 10 10 10 7 8 11 9 11 11 11 12 12 13 13 13 12 13 13 13 13 13 13 13 14 13 13 12 11 11 11 13 13 13 12 12 12 13 13 13 12 11 11 10 10 9 10 9 9
1 1 2 2 1 1 2 1 4 5 3 2 1 2 3 5 4 4 2 6 2 1 3 4 3 5 3 0 1 0 1 4 8 9 7 7 8 7 9 8 11 10 10 9 8 7 6 6 6 8 10 10 9 8 10 9 9 10 10 11 11 10 12 12 12 12 12 12 12 12 13 13 13 12 11 9 9 9 11 11 11 12 12 12 12 13 12 12 11 11 10 10 9 9 9 9 9
2 1 4 3 1 1 1 1 2 1 2 3 2 1 1 5 5 7 5 5 5 5 1 4 7 4 1 1 1 0 4 6 4 7 6 5 5 6 8 9 10 10 10 9 8 8 7 5 6 5 7 10 9 9 10 10 9 9 9 10 10 7 10 9 10 10 9 10 11 9 8 9 9 9 9 8 8 9 10 9 10 11 11 12 12 12 12 11 11 10 10 9 8 8 8 9 8
2 3 4 1 0 1 1 1 0 1 3 3 2 1 0 2 3 7 7 7 5 7 3 6 5 5 2 1 1 5 6 5 5 5 5 4 5 6 8 8 9 10 10 10 9 8 7 6 6 6 6 7 5 7 10 10 9 10 10 9 9 6 8 8 8 8 7 9 9 9 8 9 9 9 8 8 8 8 8 8 8 9 11 11 11 11 11 11 10 10 9 8 8 8 7 8 7
0 1 3 2 1 1 1 2 2 2 2 2 2 1 0 1 2 4 10 6 7 3 1 2 4 4 4 8 4 10 10 8 7 5 5 4 7 6 7 8 8 8 9 10 9 9 8 6 7 6 5 6 6 5 4 8 11 10 10 10 10 8 8 8 8 8 10 9 9 8 9 10 9 9 8 9 8 8 8 8 7 8 10 10 10 10 10 10 9 9 8 8 7 6 6 6 5
2 4 2 1 2 2 4 1 1 2 4 3 2 4 3 0 1 4 3 4 2 1 0 2 1 1 3 9 7 13 11 10 8 6 6 6 6 5 7 7 7 7 7 8 9 9 8 7 7 6 6 6 6 5 5 6 10 11 10 10 9 8 9 10 10 10 10 10 9 8 9 8 8 7 9 7 9 9 8 6 7 8 9 10 10 10 9 9 9 8 8 7 6 5 5 4 3
1 4 0 1 4 3 4 2 2 1 2 2 2 2 4 1 0 0 0 0 7 0 4 1 1 2 6 5 2 13 13 11 8 7 6 5 7 6 6 6 6 6 6 8 8 8 9 9 9 7 6 7 7 6 6 6 8 12 10 10 9 10 10 11 11 11 10 9 9 8 8 5 4 5 6 5 7 5 7 7 6 7 8 9 9 10 9 9 8 7 7 7 6 4 2 3 3
1 2 3 3 3 4 4 3 3 1 1 3 1 2 4 2 0 0 2 6 3 2 4 3 4 5 1 2 6 14 14 13 10 11 7 7 6 7 7 6 7 9 8 7 8 9 9 9 10 9 7 7 7 6 5 5 6 9 7 7 6 8 9 9 8 7 7 6 9 7 5 5 5 4 5 5 5 5 6 8 7 6 6 7 7 8 9 8 8 7 7 6 5 3 2 1 2
2 1 3 9 5 2 4 1 1 2 3 2 2 1 4 4 5 1 4 0 1 3 2 3 3 5 6 6 10 15 14 13 12 12 11 11 9 10 9 7 7 7 8 8 8 10 10 9 9 10 9 8 7 6 5 6 7 7 8 7 6 8 7 8 7 7 6 6 6 6 5 5 5 4 5 5 5 5 6 9 9 9 7 6 6 6 6 6 6 6 6 4 3 3 1 0 1
3 5 5 7 4 3 3 2 4 3 4 5 1 0 4 2 3 1 3 4 1 7 5 1 1 1 4 5 8 12 13 13 12 13 13 11 9 10 9 9 9 9 10 9 9 7 9 10 11 10 11 10 9 7 6 6 6 8 8 7 6 6 6 6 6 6 6 6 6 6 5 5 5 4 6 9 7 4 4 7 9 9 9 8 8 5 5 3 3 4 3 3 3 2 1 1 1
2 2 6 4 4 1 4 3 3 1 4 4 3 0 2 1 3 3 4 6 3 5 6 10 11 9 9 9 11 11 12 12 11 11 12 11 9 8 10 11 11 9 7 6 6 9 10 10 10 10 10 10 10 8 8 7 6 7 9 7 6 6 6 6 6 6 6 6 6 5 5 4 4 4 5 4 4 4 4 3 4 4 3 3 5 4 4 3 1 2 1 1 2 2 2 3 2
3 8 2 2 1 4 5 4 5 3 1 5 1 4 4 1 1 2 9 7 7 9 9 9 9 13 13 12 11 10 13 14 13 12 14 14 15 13 9 6 4 4 4 8 10 8 10 10 10 9 10 10 10 9 8 7 8 8 10 8 5 6 7 6 5 6 6 6 6 5 5 6 5 5 5 6 5 5 5 4 4 3 3 3 2 4 3 3 2 3 3 3 3 2 2 3 3
4 4 2 3 3 2 1 1 3 4 2 4 4 3 2 4 1 3 7 7 5 6 6 11 7 14 16 14 13 12 13 15 15 16 16 14 13 12 12 10 10 9 8 8 7 7 8 9 10 10 10 10 11 9 7 7 7 7 7 8 7 6 6 7 6 6 6 6 6 5 6 6 6 6 5 5 6 6 6 5 5 4 4 4 2 3 4 4 4 4 3 4 3 3 3 3 3
6 7 1 6 5 7 4 3 1 2 7 5 4 1 4 3 2 1 4 6 5 3 3 6 10 9 10 12 15 18 17 17 18 18 18 19 19 19 16 14 12 8 8 9 8 8 8 11 10 9 10 10 10 9 9 8 8 7 8 7 8 9 8 7 7 7 6 7 6 6 6 6 7 6 6 6 6 6 7 7 5 5 4 4 4 4 5 4 4 4 3 4 3 3 3 3 3
8 6 3 2 2 5 5 7 4 3 4 2 3 3 4 6 3 1 5 8 5 3 1 2 7 11 11 13 15 13 14 13 14 13 10 9 11 10 7 8 7 7 11 10 9 9 9 9 10 11 10 11 10 9 9 8 8 8 8 8 8 8 8 7 7 7 7 6 6 7 6 6 6 7 7 7 6 7 7 6 5 6 6 5 5 5 4 5 5 5 5 5 4 4 3 3 4
6 10 3 2 3 4 5 4 4 5 2 2 3 5 3 5 1 4 9 6 6 2 2 4 9 10 13 14 15 14 13 15 14 12 16 12 9 10 11 11 10 11 13 11 11 11 9 8 10 12 11 11 10 10 9 8 9 9 9 9 8 8 8 7 6 7 7 7 7 6 7 7 7 7 7 6 7 7 7 7 6 6 6 5 5 6 5 5 6 5 4 5 4 4 3 5 5
7 7 6 6 7 6 2 5 4 5 4 4 6 6 3 1 3 9 5 8 2 3 3 4 10 12 13 12 13 13 15 16 17 16 8 8 10 12 12 11 13 14 11 12 12 11 10 10 10 11 11 9 9 10 9 9 9 9 9 8 8 8 7 7 7 7 7 7 7 6 6 7 7 7 7 7 7 7 7 7 7 6 6 6 5 6 5 5 5 5 6 5 5 4 5 4 4
3 8 4 6 6 5 2 2 5 1 3 4 4 5 1 1 1 15 3 3 5 5 4 5 7 10 11 11 12 13 13 15 14 10 15 14 13 14 13 14 16 12 13 15 13 10 11 13 12 12 11 10 10 10 9 9 10 9 8 8 8 8 8 7 7 7 8 7 7 6 6 6 7 7 8 7 8 7 7 7 7 6 7 6 6 6 6 6 6 6 5 5 5 5 5 5 5
2 6 5 6 3 7 4 6 4 4 4 4 3 2 4 0 9 18 4 3 4 6 7 9 10 8 9 10 11 10 14 13 10 11 15 16 15 12 16 15 14 14 12 12 11 11 14 13 13 13 11 10 11 12 10 10 9 9 9 9 8 8 8 8 8 8 8 7 7 8 7 7 7 8 8 8 8 8 7 7 7 7 7 7 7 7 6 6 5 5 5 5 5 4 5 6 3
4 1 3 2 2 5 7 3 2 6 2 7 4 7 7 11 16 12 4 4 3 4 7 8 8 8 8 9 10 11 11 9 10 14 14 15 14 14 17 15 15 14 11 9 10 14 13 9 10 10 11 12 12 10 10 9 9 9 8 8 8 9 8 8 9 8 8 8 8 8 8 8 8 7 8 7 7 7 7 8 8 7 7 7 7 7 7 6 6 6 7 6 6 6 6 6 4
7 2 2 6 3 5 3 6 5 6 2 7 5 10 10 10 13 6 4 5 6 9 10 10 9 9 9 10 10 12 13 14 16 17 17 16 14 12 15 13 14 14 10 10 16 17 13 12 10 10 12 13 13 12 11 11 9 9 8 8 8 9 9 9 9 8 8 8 8 8 9 8 9 8 8 9 8 8 8 8 8 8 7 6 7 7 7 7 6 7 6 6 6 5 6 7 5
3 4 8 0 9 2 3 2 10 10 1 5 6 9 13 16 13 4 7 9 9 12 13 11 9 9 10 10 11 12 13 13 14 14 16 16 14 12 14 15 15 15 16 16 14 12 15 14 14 13 13 15 15 15 13 11 11 10 9 8 9 9 9 9 9 9 8 8 8 9 9 9 9 10 9 9 9 8 8 8 8 7 7 6 7 6 6 7 6 6 6 6 6 6 6 7 5
4 12 1 7 4 4 2 3 6 11 4 3 10 8 1 11 8 7 6 8 10 12 15 12 12 11 9 9 11 11 10 9 10 12 13 14 13 13 14 15 15 17 16 14 14 14 15 16 15 16 17 18 16 16 15 12 11 11 10 10 10 10 10 9 9 9 8 8 8 9 10 10 9 10 10 10 9 9 8 8 7 7 6 7 7 6 7 7 6 7 6 7 7 7 8 7 6
9 5 6 2 9 3 7 2 6 8 7 6 6 11 13 10 3 3 0 6 6 10 14 12 10 9 10 9 9 10 11 12 14 14 15 15 13 15 14 13 15 14 14 15 15 16 17 16 15 16 15 15 14 14 14 13 11 11 10 9 9 10 10 9 9 8 9 9 9 9 10 10 10 10 10 10 9 9 8 8 7 8 7 7 7 6 7 6 6 7 8 7 7 7 7 8 8
8 6 6 2 3 12 10 9 5 9 7 10 6 13 14 14 11 9 7 4 7 11 13 11 10 10 11 10 9 11 11 13 16 13 15 16 16 14 13 12 12 12 12 14 14 14 13 13 13 15 14 13 12 12 11 10 9 8 7 8 9 10 9 9 9 9 9 9 9 9 9 9 10 10 10 10 9 8 8 8 8 8 7 8 7 7 7 7 7 7 8 8 6 7 7 8 8
11 9 10 8 10 10 14 10 3 13 8 9 11 14 13 16 15 14 11 7 8 10 9 8 9 10 10 10 10 10 12 16 14 11 14 14 14 14 14 13 12 12 13 13 14 12 13 13 12 12 13 13 12 10 9 9 8 9 9 7 8 10 10 9 9 10 9 10 10 10 9 9 9 10 10 10 9 9 8 8 9 8 9 9 9 9 9 8 10 9 9 8 7 7 6 6 6
8 10 9 13 12 7 5 4 4 5 6 12 13 15 18 16 15 15 15 10 8 10 11 11 9 9 10 10 11 13 14 17 12 13 12 12 14 14 13 12 12 12 13 13 14 14 15 14 13 16 14 13 12 12 11 12 12 11 9 12 14 12 11 10 10 10 11 11 11 11 10 9 9 10 10 10 10 9 9 8 9 9 9 10 10 11 10 10 10 9 8 7 9 9 8 6 5
5 9 10 11 9 12 7 8 4 4 7 3 8 10 18 14 16 17 14 8 12 15 17 16 15 13 11 12 14 14 15 9 6 6 7 8 10 11 11 11 10 12 12 13 16 17 16 16 15 15 11 13 14 15 14 13 13 14 14 15 13 11 11 12 13 11 12 10 11 11 11 10 10 10 10 10 10 11 10 10 10 10 10 10 10 9 9 9 9 9 7 7 7 10 9 7 7
5 5 7 8 10 3 4 7 3 4 4 9 5 10 17 16 16 17 14 11 13 15 17 17 16 15 14 14 15 14 10 13 8 10 7 10 11 13 12 12 12 16 16 17 18 16 16 15 15 14 13 14 14 15 13 14 13 13 13 10 11 9 8 9 8 8 7 9 11 12 11 11 11 11 11 11 11 11 12 11 11 10 10 10 9 10 10 11 10 12 11 11 8 6 7 6 9
9 7 6 11 3 7 9 8 5 5 7 2 7 13 14 16 12 14 12 11 13 15 14 14 12 15 16 17 14 13 15 15 13 13 13 12 12 13 12 13 14 12 12 12 13 16 15 15 15 15 15 14 13 14 15 15 13 11 9 5 6 8 7 6 6 5 8 10 12 12 11 12 13 12 12 12 11 11 12 12 10 10 11 10 11 11 11 12 11 11 11 12 9 8 8 9 8
11 11 10 8 7 9 6 4 4 3 6 1 3 9 12 14 13 11 10 10 12 13 7 10 11 13 15 12 10 14 17 16 15 13 10 9 10 13 14 15 13 13 14 15 16 16 14 18 18 17 16 16 15 14 16 12 9 8 7 4 4 4 2 6 7 9 12 13 12 12 15 13 12 13 13 13 12 13 12 11 11 11 11 11 10 12 12 14 13 12 13 12 13 12 10 7 7
11 15 15 9 3 4 4 3 0 2 6 5 7 5 15 10 17 17 13 7 11 12 11 13 15 14 14 13 15 15 14 14 16 16 14 12 13 12 12 13 13 14 16 16 15 17 15 15 16 15 14 13 15 15 15 11 11 12 10 10 10 11 12 11 14 18 16 15 18 13 9 12 13 13 13 13 14 12 13 13 12 12 12 11 12 12 12 11 13 13 14 13 13 13 10 8 8
11 12 14 9 6 5 4 3 2 8 11 3 9 11 12 3 10 10 10 13 15 14 14 16 15 15 14 15 15 15 16 16 14 13 9 8 11 11 13 14 16 16 17 14 13 14 16 15 15 16 15 14 14 14 14 12 12 11 14 15 15 15 16 14 14 12 10 11 8 10 12 11 13 14 14 13 13 14 13 12 13 13 12 12 11 11 13 14 12 13 11 12 13 11 9 10 12
11 5 12 11 11 7 5 4 8 7 1 4 3 8 12 13 15 4 6 10 12 14 15 12 12 14 15 15 15 15 17 17 15 14 13 11 12 15 17 17 15 17 16 13 14 14 16 16 15 16 14 14 13 12 14 15 14 14 14 15 14 15 15 15 13 12 8 6 10 12 10 11 12 13 13 13 14 14 13 13 13 13 13 13 12 13 13 12 10 10 12 13 11 10 12 13 11
1 7 14 14 12 7 5 6 6 3 2 10 8 1 5 13 4 9 6 9 9 13 13 13 14 14 15 16 17 17 19 17 13 12 13 15 17 17 16 14 15 15 13 13 14 14 14 14 15 14 15 14 13 15 15 15 15 15 15 14 14 13 12 11 7 7 9 8 10 10 11 11 11 13 13 13 13 14 13 13 13 14 14 14 12 12 11 12 13 12 12 11 13 12 11 12 10
5 3 10 9 8 3 3 1 1 1 1 13 14 8 9 20 5 8 9 16 18 12 12 14 12 13 16 17 17 18 17 13 10 14 15 16 17 15 13 13 11 12 11 12 12 11 12 12 14 15 16 14 13 14 15 16 17 15 15 15 17 14 11 10 8 9 9 8 11 11 11 11 11 11 12 12 13 13 13 13 13 15 14 13 11 13 12 12 12 12 13 13 13 13 11 11 13
5 3 3 4 6 7 0 2 1 2 8 19 15 13 14 17 8 11 12 14 9 8 8 6 6 10 14 15 14 15 15 14 12 13 15 15 12 11 9 11 12 8 8 9 10 11 11 12 14 16 17 14 14 16 16 18 16 16 16 17 18 17 15 13 11 10 9 10 12 12 12 12 10 11 11 12 13 13 13 13 13 14 12 12 12 13 13 13 13 12 11 11 12 14 11 11 11
11 4 5 7 1 3 0 1 2 6 11 23 13 15 17 14 8 10 11 1 10 11 11 13 14 13 14 12 14 16 14 13 13 12 12 10 7 8 6 9 10 10 8 10 10 10 11 12 13 16 15 15 13 14 15 16 15 17 17 17 17 17 16 14 15 15 14 14 13 12 11 9 11 11 10 11 13 14 13 13 13 13 13 13 14 13 13 12 11 10 10 10 11 12 11 10 10
11 8 9 12 5 6 9 5 10 12 18 4 5 12 3 19 20 2 3 6 4 9 11 14 14 15 15 16 16 13 9 7 9 10 10 8 9 10 8 11 10 9 11 13 14 13 13 13 14 16 17 15 15 15 16 17 17 17 17 17 17 15 16 16 15 15 14 13 12 12 11 12 11 10 13 13 14 15 13 13 13 13 13 14 14 12 12 11 10 10 10 11 11 12 11 11 11
15 14 14 14 11 10 13 14 7 8 9 1 2 8 11 14 16 15 12 4 8 7 8 7 9 12 12 12 11 10 8 8 9 8 8 8 8 8 10 11 11 11 11 13 14 14 13 13 14 16 18 15 15 15 16 17 19 18 17 17 17 15 16 16 15 15 14 13 12 12 12 13 13 14 14 15 14 12 12 14 13 13 13 12 12 13 12 11 11 11 11 11 12 11 10 12 14
18 12 15 13 11 6 14 9 16 15 9 2 1 5 6 6 6 4 5 10 8 8 10 10 9 7 8 9 8 8 8 7 6 6 7 9 10 10 11 12 11 10 10 12 12 13 13 13 13 16 16 15 15 16 15 18 17 18 17 16 16 14 15 14 14 14 13 13 11 12 13 12 12 13 13 13 10 12 13 12 13 13 13 13 12 12 12 12 12 11 11 13 12 11 12 12 13
10 11 7 11 15 2 10 4 6 9 7 3 6 8 5 13 2 3 3 3 4 3 5 4 6 6 9 10 11 12 11 10 5 6 8 9 10 9 8 8 9 10 11 11 12 12 12 14 14 16 18 17 17 17 17 17 17 15 16 16 17 16 14 13 12 12 11 12 13 13 13 13 12 12 10 10 11 11 12 13 13 14 13 12 12 13 13 11 11 11 12 12 14 10 11 13 13
9 8 16 15 6 9 2 4 1 2 1 13 1 9 13 11 19 14 8 4 7 6 5 6 9 10 12 12 12 16 13 6 6 7 7 8 6 7 9 9 9 10 9 11 13 13 14 15 14 15 16 15 15 17 17 16 15 14 16 17 16 16 16 16 15 15 15 14 13 12 12 13 12 11 11 9 11 11 12 13 13 14 13 13 12 13 12 12 11 11 12 12 13 11 11 12 10
11 17 11 3 4 3 2 7 1 4 7 6 7 17 15 5 16 5 18 17 12 8 9 9 11 12 13 17 17 20 7 6 7 7 7 7 6 7 8 9 10 11 11 11 12 12 12 14 14 16 16 17 16 15 15 14 15 15 15 16 17 17 16 16 15 15 14 13 12 11 11 11 13 13 10 9 10 11 11 12 13 13 13 13 13 12 12 12 11 11 12 12 11 9 10 10 11
12 11 11 15 9 12 3 2 12 7 10 5 12 16 19 15 19 0 3 18 19 17 12 10 10 10 16 20 22 17 5 4 5 7 8 8 8 9 10 11 9 8 7 8 9 8 8 9 11 13 16 17 17 14 14 14 14 13 13 15 16 16 15 15 14 14 13 12 14 13 14 14 11 10 11 11 11 11 11 11 11 12 11 13 12 12 12 11 11 11 11 11 10 9 10 11 10
3 2 14 8 1 12 12 13 4 7 12 6 18 10 17 11 18 17 10 7 13 15 13 11 12 12 14 15 17 15 12 9 7 7 8 9 10 11 12 9 8 8 9 9 9 6 8 11 10 10 10 10 10 11 11 13 14 13 13 12 13 14 14 15 15 15 14 14 15 14 14 12 14 10 10 11 10 11 10 11 10 10 11 11 11 12 11 12 11 12 11 10 10 9 10 11 10
9 6 12 11 7 1 7 5 13 9 9 14 10 14 10 15 7 10 12 11 9 12 14 13 13 13 14 16 16 14 10 9 8 9 9 10 11 9 7 6 7 6 5 5 6 9 10 7 8 10 12 12 11 12 12 12 11 12 13 14 14 14 16 15 15 15 15 15 14 12 12 13 8 11 12 10 11 11 10 10 10 10 11 11 11 11 10 10 12 12 11 11 10 11 12 11 9
19 18 19 19 16 11 16 16 5 10 8 5 7 21 10 7 4 12 15 15 13 14 17 17 20 21 19 18 16 10 7 8 8 8 8 9 7 7 6 5 5 5 7 8 8 5 6 8 10 9 8 9 11 12 11 12 11 11 14 15 15 14 14 14 15 15 15 14 13 13 13 9 10 13 9 11 11 9 8 9 10 10 10 11 11 11 11 10 11 12 12 10 10 10 10 10 9
Wind_Direction
342 343 319 308 70 106 67 360 80 313 50 290 349 23 211 51 264 68 111 344 56 292 237 27 38 15 122 170 141 135 123 134 206 132 213 233 96 130 130 127 130 131 138 149 155 147 140 146 150 135 130 132 133 130 122 120 122 120 123 120 121 122 122 117 118 117 120 118 115 108 106 106 103 106 106 103 103 103 103 103 103 102 101 100 102 98 91 88 87 85 83 81 79 76 71 67 66
341 333 312 330 69 78 274 104 98 353 41 51 219 99 215 309 54 140 137 132 186 162 224 107 74 74 83 108 126 114 36 339 200 161 60 99 108 109 140 135 139 137 142 149 150 141 138 151 155 135 135 136 138 134 129 125 128 126 127 122 118 123 125 124 116 117 116 112 113 116 115 110 106 104 104 104 102 104 103 105 105 103 101 101 97 95 93 89 86 84 82 79 76 74 70 65 62
338 349 354 24 25 66 51 42 15 48 64 65 285 204 337 78 143 230 192 147 171 147 139 98 96 84 88 86 23 17 235 332 93 94 108 157 117 197 152 141 140 139 140 149 144 140 138 153 151 141 141 145 140 132 136 134 132 134 131 124 122 125 128 122 121 116 118 119 111 94 98 109 109 107 103 105 108 105 103 103 101 103 104 101 100 98 96 93 89 88 85 82 78 74 69 64 63
19 25 81 50 328 30 59 23 100 118 30 210 329 290 169 155 187 193 219 173 167 144 172 51 65 244 106 58 138 92 78 202 222 161 135 184 184 149 151 136 133 129 130 143 146 138 140 153 145 141 148 144 135 138 140 140 138 132 120 128 130 127 127 127 124 124 122 120 119 120 118 109 108 108 106 104 103 101 103 103 103 101 104 104 103 102 99 96 94 92 87 85 81 77 72 68 66
18 347 50 100 101 360 88 150 127 95 351 205 172 274 231 178 165 183 218 245 261 101 63 125 73 355 105 125 139 139 214 152 143 147 144 151 132 141 141 133 133 134 138 147 145 141 147 150 149 143 149 144 143 144 145 146 141 139 131 130 136 132 128 129 127 124 124 123 108 99 105 115 115 112 110 107 104 105 104 105 105 107 108 107 105 104 101 100 97 94 90 87 85 80 75 71 69
67 50 3 78 47 177 48 38 350 322 224 145 137 213 203 187 156 182 168 266 298 64 135 71 144 170 21 324 190 130 161 138 193 204 139 163 145 141 143 137 136 140 145 145 148 149 152 152 150 151 153 151 143 146 151 149 145 144 141 139 140 135 133 132 127 126 127 121 120 120 116 115 116 113 110 110 111 111 109 106 108 111 109 109 107 104 103 101 99 95 90 87 83 81 76 72 70
330 29 356 24 1 54 162 126 244 221 285 157 187 176 186 206 183 130 150 104 334 51 349 135 112 87 73 304 2 23 291 203 122 197 146 155 143 142 144 142 142 145 148 151 154 154 158 154 154 154 159 155 146 147 154 153 149 147 145 142 144 137 135 132 131 131 126 123 119 119 119 122 121 116 115 114 111 110 111 110 111 110 110 110 107 104 103 102 99 94 89 85 82 79 75 71 67
75 82 322 90 275 40 48 119 262 153 308 169 204 158 194 184 176 131 149 99 192 112 21 120 125 101 257 44 170 269 343 265 177 123 124 139 146 147 145 147 146 151 152 156 162 159 162 157 158 154 158 157 151 151 157 156 151 150 149 146 145 140 139 139 137 132 128 127 127 124 126 125 125 121 120 119 119 117 113 112 110 110 111 110 108 105 104 103 101 96 90 84 80 76 75 69 67
356 71 35 67 15 29 50 351 278 241 287 358 169 286 181 175 175 131 126 211 53 104 117 141 182 91 223 47 89 280 320 348 115 123 134 144 150 153 149 150 149 155 156 160 163 165 161 161 155 154 158 167 158 156 156 153 154 156 154 152 147 144 142 143 141 136 135 134 132 130 133 131 127 124 123 123 123 120 118 118 118 116 114 112 111 111 109 107 104 99 92 86 82 77 74 70 67
25 71 319 124 129 349 6 309 30 284 221 236 182 189 175 189 176 140 140 109 179 126 181 95 117 113 141 121 332 325 258 192 119 121 141 151 152 152 150 151 150 157 157 162 165 162 162 163 156 157 161 157 155 160 152 153 158 161 157 157 150 145 144 146 143 141 140 136 133 135 135 134 132 129 128 124 123 126 125 123 121 120 118 118 119 117 115 113 108 102 96 92 87 82 79 73 72
335 7 141 62 23 44 352 282 273 320 197 343 286 226 200 171 144 119 132 147 134 149 206 216 50 123 104 199 208 265 268 159 134 155 160 153 151 150 146 150 151 156 159 161 163 159 163 160 160 160 154 149 154 149 153 156 162 162 159 155 153 146 149 148 145 143 142 140 140 139 137 138 134 133 131 130 127 128 131 128 127 127 127 126 124 121 117 116 112 107 102 97 93 88 85 83 82
333 7 10 109 226 163 239 222 297 282 294 2 238 230 219 160 115 109 123 123 203 130 168 138 183 141 59 43 296 37 137 177 156 155 158 148 150 141 143 149 148 155 157 159 157 159 156 160 157 162 153 149 148 151 148 154 158 161 160 155 154 152 151 153 147 147 146 142 143 141 141 138 137 135 127 120 121 125 130 132 134 131 133 131 130 125 123 121 114 110 106 101 97 92 92 93 90
114 99 79 95 230 136 221 342 264 315 352 272 199 258 121 143 168 171 182 143 158 132 265 222 133 85 120 182 275 109 180 202 183 160 151 144 139 138 140 145 150 152 154 154 156 160 157 154 157 156 157 150 149 150 151 153 151 153 152 157 163 159 155 150 149 148 147 142 142 132 129 126 126 123 119 118 117 119 124 124 130 136 134 134 132 130 125 121 118 113 109 105 101 97 96 97 94
115 177 124 230 88 168 152 233 349 220 275 243 245 255 131 128 225 166 128 123 191 158 240 163 136 124 103 54 224 202 215 203 187 165 134 127 123 138 144 144 149 152 155 156 160 162 159 157 156 153 157 152 154 150 149 152 152 153 157 157 164 166 151 150 148 144 128 116 122 124 121 123 120 117 114 111 106 108 109 115 124 130 134 134 133 130 127 124 120 116 112 108 102 97 94 93 88
134 147 86 117 288 62 245 137 188 137 261 189 230 160 48 10 100 157 148 143 217 226 345 91 164 125 231 154 258 204 192 189 176 152 119 103 119 136 141 144 148 152 157 159 161 162 166 161 160 154 159 158 155 152 152 154 154 157 159 162 167 162 149 147 139 126 126 129 127 133 133 127 124 120 117 115 114 110 109 108 119 132 137 138 137 135 132 131 125 123 118 115 108 100 93 86 80
154 85 80 133 255 174 267 187 32 111 261 188 281 136 92 4 177 127 238 148 185 4 121 162 11 239 158 172 212 185 161 165 168 130 112 104 109 128 138 146 148 159 163 161 165 170 167 168 164 164 165 163 162 160 160 157 158 160 162 166 167 155 147 144 139 136 136 133 135 132 129 126 125 124 121 120 122 119 119 125 133 140 143 144 144 142 137 136 135 130 129 126 125 124 116 103 85
79 80 54 52 249 164 252 156 141 317 254 277 282 202 154 227 277 232 104 77 121 120 50 357 340 14 161 199 211 134 145 152 142 130 114 120 126 136 142 148 154 165 173 175 170 174 172 170 170 174 172 168 167 165 163 161 165 162 165 166 162 156 150 148 144 141 138 138 136 136 128 125 128 130 124 128 123 125 131 133 135 138 144 148 148 146 145 145 144 142 143 145 149 141 111 87 62
65 158 124 246 198 187 206 176 189 190 134 248 272 219 123 138 313 358 66 37 66 41 61 328 21 24 316 305 126 130 140 149 155 146 152 153 153 155 164 176 168 179 179 182 185 175 176 178 175 178 176 174 170 168 169 166 167 165 165 167 161 160 155 148 146 151 149 149 146 143 141 142 140 138 137 130 128 135 136 134 128 117 126 135 142 148 152 150 153 156 162 164 164 137 88 38 13
134 119 130 234 185 233 161 195 219 107 258 192 238 276 168 208 142 231 113 256 115 80 2 17 39 14 42 74 121 132 145 154 162 166 164 171 177 175 177 178 185 173 188 187 192 185 180 180 181 180 179 178 171 172 174 169 170 165 164 167 167 162 162 157 160 159 161 158 162 157 153 153 150 147 145 141 137 138 144 140 135 126 117 112 114 127 136 150 161 175 180 170 158 119 103 50 357
233 130 217 229 197 230 256 207 266 199 176 157 164 193 181 204 144 171 155 168 120 172 164 341 149 176 139 127 136 142 152 162 170 172 176 181 185 182 182 187 193 193 187 188 183 190 185 185 186 183 182 180 174 177 175 173 174 172 172 168 168 168 168 169 166 168 169 169 168 165 160 158 152 146 144 142 134 129 135 143 142 141 142 140 138 131 133 138 177 207 188 147 144 143 167 310 310
255 133 215 226 189 238 252 193 236 252 141 162 170 55 140 252 223 154 163 121 253 253 221 168 199 180 172 166 157 156 160 167 177 183 182 185 194 195 196 194 193 188 181 178 185 194 193 186 186 189 187 184 180 178 176 179 176 175 177 172 169 170 173 176 174 175 176 177 173 169 163 155 149 145 148 144 149 143 135 138 137 134 127 146 144 149 157 171 195 249 257 124 193 209 216 257 286
117 217 173 186 134 204 254 223 214 175 208 134 131 123 214 84 57 155 151 162 212 210 216 218 186 168 160 170 174 165 168 173 181 185 191 190 191 195 196 204 221 204 184 187 198 192 195 192 187 188 189 190 187 182 181 177 171 180 182 179 172 175 179 180 182 181 183 182 176 174 158 156 154 153 162 164 162 160 158 157 146 130 154 163 153 169 177 178 212 241 212 205 220 227 228 246 250
231 270 243 240 188 171 258 271 215 165 143 161 150 215 95 156 230 195 185 191 234 215 194 198 171 172 175 163 160 174 177 182 185 190 192 195 200 200 197 193 190 196 202 206 190 198 194 199 191 186 191 190 191 184 179 177 185 181 181 184 180 178 182 183 188 187 187 184 182 173 166 168 165 166 171 173 163 171 168 170 167 173 168 180 182 179 192 196 204 221 221 222 209 191 225 253 253
211 239 180 221 216 233 239 255 141 174 144 207 203 83 165 171 218 163 203 248 235 253 210 186 169 159 142 156 178 178 185 185 193 194 193 196 195 197 193 191 196 193 198 204 198 195 193 201 197 190 191 190 192 185 182 184 184 181 185 183 192 187 185 192 189 190 188 191 187 180 180 172 171 175 179 175 175 175 176 180 175 181 180 192 187 197 190 201 212 225 229 239 243 223 200 234 224
203 247 206 257 199 238 240 244 227 182 203 180 113 139 232 181 190 44 247 246 250 257 26 104 133 146 165 171 183 189 190 197 199 200 205 212 210 205 203 204 193 189 204 203 200 201 200 193 197 199 193 192 191 185 189 186 185 185 183 189 193 187 195 192 188 186 192 196 194 184 183 178 178 181 184 185 176 184 188 185 177 184 189 196 181 206 198 195 209 217 227 236 234 249 240 222 207
217 217 167 213 224 246 240 242 215 211 182 170 142 225 254 239 265 257 236 245 236 215 78 122 144 155 174 185 187 186 194 199 201 199 206 202 201 199 208 202 197 200 204 198 197 204 200 189 194 200 196 191 191 187 192 187 189 189 191 192 190 189 199 191 186 191 195 194 203 189 190 184 183 184 187 186 180 188 184 184 190 194 196 194 188 201 205 198 202 212 232 236 232 241 246 236 213
199 211 202 202 227 234 235 201 222 214 222 189 200 230 230 306 136 267 222 221 135 135 156 164 159 180 189 189 191 194 192 200 200 204 195 203 206 208 207 203 205 209 194 202 202 202 197 195 198 196 198 188 188 193 191 192 188 195 193 192 190 194 193 190 194 194 196 199 204 190 191 192 184 187 187 187 191 188 187 187 194 191 198 200 197 207 196 205 203 203 211 221 222 222 234 231 210
159 203 204 239 249 245 241 192 221 129 261 184 186 248 258 282 126 247 157 228 165 156 176 184 195 191 193 196 194 201 203 207 204 184 197 196 207 206 202 202 208 202 199 205 200 195 195 202 202 196 193 187 186 196 192 193 193 194 191 191 197 195 188 194 196 197 202 202 203 196 189 192 188 190 189 190 192 190 193 192 192 189 203 201 199 203 199 207 205 208 213 221 220 211 228 235 223
175 144 189 238 260 240 210 198 214 160 247 148 133 343 280 169 226 244 146 159 162 185 194 201 203 207 204 202 202 202 210 209 196 198 206 206 207 199 205 207 200 202 211 203 195 192 201 199 201 202 192 190 188 193 194 195 192 192 190 195 195 189 193 195 197 200 201 200 203 203 192 191 191 188 193 192 192 193 193 194 195 199 201 198 199 203 198 201 210 211 220 218 226 220 225 236 230
105 58 153 235 211 257 236 184 141 158 243 152 119 261 222 234 240 250 136 186 199 214 230 221 212 207 210 207 207 212 218 212 203 207 209 212 208 201 207 205 200 201 201 193 189 202 200 198 200 198 199 196 195 192 192 193 193 194 191 193 191 188 194 197 202 198 195 195 197 205 196 193 190 193 187 196 193 194 196 197 197 202 201 195 194 195 198 193 202 201 217 200 218 203 216 228 213
188 209 101 208 167 249 233 173 168 175 190 170 131 247 260 246 248 255 225 201 186 224 234 226 216 212 212 212 212 214 217 210 208 207 212 213 210 207 210 205 200 203 193 192 197 200 192 197 192 199 197 200 197 198 193 193 191 193 189 189 191 191 194 200 201 199 196 194 192 203 201 195 193 191 191 189 197 195 194 198 200 203 195 190 186 193 193 200 198 205 199 206 215 216 221 224 204
170 137 224 230 199 279 264 203 155 191 228 187 119 247 251 257 257 216 211 204 199 224 233 229 219 219 214 214 219 220 221 216 221 218 215 213 209 209 208 209 203 200 198 199 198 189 196 197 194 198 195 200 200 200 198 193 191 193 191 187 188 191 193 199 200 200 197 191 194 202 203 199 197 194 190 190 195 197 195 196 199 194 193 190 196 191 192 201 204 211 210 197 206 224 216 230 207
232 204 137 201 153 223 343 245 191 194 154 250 182 236 279 277 263 242 224 199 206 223 239 235 229 228 220 218 221 224 227 229 228 223 219 217 217 211 210 210 205 203 202 195 193 192 198 198 196 199 198 200 200 200 200 199 192 193 192 189 192 191 195 197 197 197 195 193 194 202 203 201 201 197 194 192 194 198 199 199 197 194 189 193 197 198 201 205 199 208 216 211 201 212 210 218 212
208 204 202 185 176 157 224 298 216 205 170 206 231 236 237 252 281 291 273 192 197 227 241 243 240 241 239 233 228 230 227 226 224 218 218 215 217 214 214 211 208 205 206 201 195 193 197 195 198 202 203 201 200 200 201 200 199 195 195 196 194 199 200 197 196 191 197 196 192 201 201 202 202 201 198 194 198 199 199 198 195 194 190 195 200 201 211 205 208 201 215 213 205 204 209 209 216
175 157 180 219 163 187 200 180 233 191 208 209 216 239 245 255 260 264 268 174 192 224 236 242 241 239 240 236 233 231 231 228 231 220 217 215 214 213 213 212 208 205 205 205 201 201 198 197 198 203 201 198 201 201 201 202 199 200 201 199 202 206 206 203 196 200 201 198 199 197 196 201 204 203 200 196 197 195 198 199 195 195 190 196 199 206 212 208 209 209 211 216 215 215 206 208 209
192 168 198 196 195 201 210 206 251 189 212 220 222 238 241 246 253 256 250 218 200 227 242 249 246 246 247 241 236 233 233 236 232 222 220 215 212 208 209 208 205 201 202 201 203 202 204 202 202 203 203 196 196 195 190 197 196 197 199 204 210 212 208 203 204 206 202 207 204 197 196 199 203 206 203 198 198 193 196 198 200 194 196 195 202 207 212 207 207 208 218 210 212 231 237 221 208
161 188 200 213 217 228 233 226 206 190 210 225 229 241 250 250 249 249 244 235 229 240 245 243 242 242 245 243 240 236 233 236 227 222 220 215 213 211 211 206 205 202 202 199 199 202 202 202 197 205 201 195 191 191 193 193 196 198 203 205 211 204 204 201 206 208 208 210 205 205 200 201 201 205 206 198 201 197 198 197 200 202 200 201 204 212 209 210 209 207 211 204 206 216 230 213 215
207 196 205 222 211 228 206 227 200 201 190 244 219 243 254 244 249 247 244 219 223 231 240 244 245 241 241 242 245 241 241 250 253 248 232 224 219 217 211 209 203 200 207 199 202 203 201 201 201 207 196 198 198 196 195 196 198 198 198 206 204 200 197 199 208 206 209 208 207 208 207 204 203 204 204 204 202 199 199 201 202 204 201 207 210 210 208 208 206 208 202 215 217 212 223 195 201
267 221 212 228 226 237 275 249 180 212 188 241 221 236 256 246 240 248 241 223 226 225 225 232 235 240 241 241 244 248 251 247 234 239 228 220 215 212 207 209 207 207 202 199 204 201 202 202 205 202 199 200 203 199 195 201 200 203 201 206 198 207 211 211 214 211 209 212 213 211 208 207 205 207 203 204 205 204 206 203 206 203 206 203 206 210 208 209 206 207 202 207 211 226 226 207 196
229 222 195 220 143 153 232 237 215 222 199 206 218 247 258 267 251 253 246 226 235 232 225 230 227 234 235 235 234 239 242 245 239 229 222 218 212 211 209 210 211 207 206 209 207 204 203 205 204 200 200 201 204 204 205 206 202 201 206 197 198 202 205 199 205 203 210 216 220 212 214 209 206 209 204 205 210 209 207 209 205 206 208 204 205 207 207 212 206 208 207 211 200 213 212 223 202
223 228 229 222 171 205 222 255 233 236 254 118 307 287 267 250 253 252 244 226 238 244 225 233 238 236 240 242 241 233 237 238 239 236 229 220 218 215 209 212 207 206 208 208 204 204 205 205 203 200 200 200 202 202 204 201 188 190 189 163 153 185 135 178 193 216 212 212 214 211 214 204 206 210 207 208 209 213 210 211 209 210 210 208 207 211 210 211 206 207 204 205 204 208 212 214 212
221 226 224 223 214 249 215 254 245 285 272 201 168 276 259 234 241 235 239 224 231 243 227 224 229 233 239 240 238 239 243 241 238 236 225 213 216 217 216 214 209 211 212 211 205 208 206 207 204 203 204 203 203 202 200 192 195 191 181 185 189 196 207 195 201 210 207 204 210 210 206 204 207 210 209 209 209 209 212 210 210 211 213 210 209 214 215 211 211 208 207 206 211 211 210 202 218
213 223 209 214 234 235 216 213 163 252 251 274 186 217 271 95 243 226 222 234 231 238 228 226 226 232 233 234 235 237 237 243 243 246 237 215 221 218 219 212 210 212 217 207 207 210 209 208 204 202 202 204 203 199 189 190 198 199 198 200 202 202 208 213 215 220 213 214 205 204 208 204 208 208 211 210 209 209 211 209 210 212 214 214 211 214 217 214 211 211 205 209 213 206 203 216 213
228 104 159 202 222 220 230 185 191 245 354 286 271 227 262 274 245 207 215 229 235 237 241 230 227 233 235 235 237 237 237 238 238 236 231 224 217 211 218 215 212 215 213 203 208 208 207 208 203 203 205 205 201 196 190 192 197 200 203 207 210 213 213 218 211 217 213 199 204 210 204 208 208 211 211 211 211 209 210 212 210 213 215 215 211 216 219 217 215 214 210 213 212 207 205 215 216
233 146 152 198 199 213 228 199 208 243 20 268 226 82 293 247 251 170 163 244 228 242 238 236 228 227 234 237 238 239 239 237 231 232 228 223 223 220 220 218 218 218 211 205 208 206 206 207 207 205 207 204 201 194 194 195 199 199 203 206 214 219 220 225 214 210 210 204 208 209 209 211 210 213 214 213 211 212 209 213 211 215 216 216 214 220 221 218 216 213 210 210 213 214 213 217 216
216 172 166 169 174 182 94 89 93 335 188 248 233 173 237 270 163 188 195 227 233 221 230 237 228 224 229 234 237 239 244 244 227 228 229 227 228 226 221 224 225 218 212 211 211 206 206 206 207 205 209 204 200 197 197 199 200 200 205 208 213 215 214 219 207 207 206 200 213 210 211 212 211 212 215 215 215 213 212 211 214 217 218 218 216 222 221 220 220 217 215 213 214 217 216 215 219
112 118 92 126 156 207 351 47 117 42 240 249 227 185 201 270 206 192 172 223 211 207 229 238 232 230 240 238 236 239 238 237 234 229 232 232 230 229 224 223 227 220 214 208 208 206 207 206 207 209 211 205 199 199 197 201 200 202 208 208 211 213 211 212 213 216 205 204 212 213 210 213 209 213 210 216 217 213 213 211 214 217 217 217 218 220 220 220 219 219 219 218 218 218 218 218 223
153 163 126 99 257 57 205 286 98 214 249 247 216 200 190 234 269 168 198 153 178 179 202 216 226 226 233 235 237 237 235 233 235 236 238 233 239 234 220 228 226 218 207 207 209 208 209 209 208 212 214 208 203 201 200 204 202 206 210 210 212 213 209 211 213 216 211 211 213 214 212 211 214 214 211 216 217 213 212 214 213 215 217 217 219 220 222 221 220 219 220 220 223 222 224 220 221
177 140 142 169 201 154 222 147 215 198 225 315 187 161 185 227 235 98 183 231 224 196 196 205 214 226 229 233 237 238 236 239 236 233 237 235 225 225 221 229 226 214 208 205 206 206 209 209 208 211 215 208 206 200 201 203 204 208 208 210 213 212 212 213 214 218 215 215 214 213 206 212 214 211 215 214 218 210 210 214 213 213 218 219 221 219 223 221 219 219 221 223 224 222 220 220 224
177 182 175 182 192 187 211 206 229 246 263 234 6 155 218 256 271 236 218 225 213 206 228 227 221 227 233 241 251 250 243 231 230 225 229 235 229 227 224 227 223 217 212 207 208 208 208 209 209 212 218 208 207 203 205 205 208 209 207 210 212 210 213 213 216 217 217 216 215 214 212 212 212 215 215 216 216 207 212 218 216 219 221 222 220 222 222 218 217 219 221 225 226 226 222 222 228
195 181 187 197 191 189 204 196 208 218 225 343 293 123 230 198 251 327 226 211 202 212 210 217 227 240 252 255 260 260 256 243 225 229 226 228 229 224 225 224 225 217 210 210 210 210 209 211 210 213 220 214 209 209 207 209 211 210 209 210 212 211 213 215 217 217 216 215 215 216 218 217 217 219 217 221 208 208 214 217 219 222 222 221 220 221 222 220 217 219 222 226 227 225 223 223 228
193 190 178 204 212 105 234 195 218 224 234 222 205 213 189 227 105 223 288 340 303 297 256 263 260 256 259 264 262 254 241 242 219 233 243 241 234 234 233 231 226 220 215 211 211 210 208 213 211 212 215 214 209 210 211 211 213 210 209 210 212 212 214 216 219 219 220 215 216 216 220 219 221 222 221 216 212 207 212 214 217 222 223 222 222 222 221 220 218 217 223 225 228 222 226 225 230
175 176 212 207 178 215 112 14 278 81 212 242 217 287 266 308 286 258 249 265 272 271 262 239 243 247 253 260 260 257 244 223 223 227 234 243 249 242 231 227 225 221 217 212 211 207 207 209 210 215 219 219 215 214 214 212 212 209 210 211 211 212 213 213 215 216 216 216 217 218 220 222 223 223 222 212 213 209 212 212 215 219 219 221 222 223 223 222 219 220 224 227 229 223 223 228 227
146 206 192 73 40 80 184 211 110 179 231 251 195 238 257 214 269 221 211 228 234 244 240 233 230 237 246 250 245 248 235 202 219 228 229 231 234 236 234 231 226 218 214 216 217 211 211 210 208 211 216 217 218 214 215 214 213 213 214 213 213 213 213 215 216 217 216 216 216 219 221 223 221 221 218 215 210 212 212 210 214 216 216 216 219 221 222 224 222 225 228 229 229 221 224 227 226
200 198 145 182 184 218 211 150 223 170 218 238 227 225 244 212 241 83 231 213 211 220 226 226 230 230 236 244 250 254 234 206 216 231 237 241 239 237 230 227 228 228 227 226 229 221 219 219 218 215 217 216 215 211 212 214 212 213 213 213 212 213 215 217 218 219 218 215 217 217 218 222 225 220 217 216 213 214 211 210 212 215 213 215 216 219 219 222 222 229 230 232 227 221 222 225 224
322 105 182 195 191 209 175 204 242 198 233 210 249 213 247 212 234 228 217 203 214 214 217 225 225 223 231 240 247 248 242 228 228 233 234 235 239 235 230 225 226 222 223 223 223 217 218 220 217 221 229 228 224 220 215 215 214 214 215 213 215 215 215 216 216 215 216 216 217 218 219 221 222 215 218 215 215 215 210 209 208 211 213 214 213 216 213 218 220 227 229 228 225 218 222 226 226
199 187 189 186 213 240 202 220 210 204 211 221 243 247 229 241 203 220 212 212 199 204 213 222 230 232 233 238 240 239 237 234 230 232 237 239 241 244 244 239 239 244 241 235 219 215 220 216 217 217 215 219 217 217 213 216 213 215 215 213 213 211 214 214 217 217 219 219 221 219 218 221 215 217 215 212 216 214 208 207 205 207 211 211 211 212 210 212 217 224 225 225 223 219 223 227 225
186 180 192 191 181 182 187 221 213 227 211 221 195 244 253 265 206 184 196 204 194 199 197 208 218 225 228 230 238 238 241 235 226 230 232 243 249 253 251 247 247 241 242 234 228 218 226 218 218 219 219 221 219 219 212 214 211 213 213 216 216 214 214 214 216 217 218 220 221 219 220 216 212 222 206 214 216 211 203 201 206 208 209 211 209 210 207 209 216 221 223 220 221 217 220 223 218